San Jose, Costa Rica

8:33 AM CST on February 23, 2017 (GMT -0600)
Juan Santamaria International

Weather History for MROC - July, 2014

Change the Weather History Date:

Sunday, July 20, 2014

  Actual Average Record
Temperature  
Mean Temperature 74 °F -  
Max Temperature 81 °F 80 °F 86 °F (2000)
Min Temperature 68 °F 64 °F 64 °F (2001)
Cooling Degree Days 10    
Growing Degree Days 24 (Base 50)    
Moisture  
Dew Point 62 °F    
Average Humidity 64    
Maximum Humidity 78    
Minimum Humidity 47    
Precipitation  
Precipitation 0.00 in 0.32 in - ()
Sea Level Pressure  
Sea Level Pressure 29.97 in    
Wind  
Wind Speed 9 mph ()    
Max Wind Speed 18 mph    
Max Gust Speed 24 mph    
Visibility 8.2 miles    
Events      
Averages and records for this station are not official NWS values.
T = Trace of Precipitation, MM = Missing Value Source: Averaged Metar Reports

Daily Weather History Graph

Daily Weather History Graph

Search for Another Location

Airport or City:

Trip Planner

Search our weather history database for the weather conditions in past years. The results will help you decide how hot, cold, wet, or windy it might be!

Date:

Astronomy

Jul. 20, 2014 Rise Set
Actual Time 5:24 AM CST 6:02 PM CST
Civil Twilight 5:01 AM CST 6:24 PM CST
Nautical Twilight 4:35 AM CST 6:51 PM CST
Astronomical Twilight 4:08 AM CST 7:17 PM CST
Moon 12:14 AM CST (7/20) 1:00 PM CST (7/20)
Length of Visible Light 13h 22m
Length of Day
12h 37m
Waning Crescent, 33% of the Moon is Illuminated
Jul 20
Waning Crescent
Jul 26
New
Aug 3
First Quarter
Aug 10
Full
Aug 17
Last Quarter

Hourly Weather History & Observations

Time (CST) Temp. Heat Index Dew Point Humidity Pressure Visibility Wind Dir Wind Speed Gust Speed Precip Events Conditions
12:00 AM 72 °F - 62 °F 62% 29.85 in 12 mi East 10.4 mph - -   Clear
12:00 AM 71.6 °F - 62.6 °F 73% 30.02 in - East 10.4 mph - N/A   Clear
1:00 AM 71.6 °F - 60.8 °F 69% 30.00 in - East 11.5 mph - N/A   Clear
2:00 AM 73.4 °F - 60.8 °F 65% 29.98 in - ESE 11.5 mph 23.0 mph N/A   Clear
3:00 AM 72 °F - 61 °F 60% 29.82 in 12 mi East 10.4 mph - -   Clear
3:00 AM 71.6 °F - 60.8 °F 69% 29.98 in - East 10.4 mph - N/A   Clear
4:00 AM 69.8 °F - 60.8 °F 73% 30.00 in - NNE 4.6 mph - N/A   Clear
5:00 AM 69.8 °F - 62.6 °F 78% 30.01 in 6.2 mi ENE 5.8 mph - N/A   Mostly Cloudy
6:00 AM 71 °F - 62 °F 67% 29.87 in 12 mi ESE 9.2 mph - -   Scattered Clouds
6:00 AM 71.6 °F - 62.6 °F 73% 30.02 in 6.2 mi ESE 9.2 mph - N/A   Mostly Cloudy
7:00 AM 73.4 °F - 62.6 °F 69% 30.01 in 6.2 mi ESE 12.7 mph 24.2 mph N/A   Mostly Cloudy
8:00 AM 75.2 °F - 62.6 °F 65% 30.02 in 6.2 mi East 11.5 mph 23.0 mph N/A   Mostly Cloudy
9:00 AM 78 °F - - %  in 12 mi East 17.3 mph - -   Scattered Clouds
9:00 AM 77.0 °F - 62.6 °F 61% 30.04 in 6.2 mi East 17.3 mph - N/A   Mostly Cloudy
10:00 AM 78.8 °F - 62.6 °F 57% 30.02 in 6.2 mi East 17.3 mph - N/A   Mostly Cloudy
11:00 AM 80.6 °F 82.3 °F 64.4 °F 58% 30.02 in 6.2 mi East 16.1 mph - N/A   Mostly Cloudy
12:00 PM 81 °F - - %  in 12 mi East 11.5 mph - -  
12:00 PM 80.6 °F 81.8 °F 62.6 °F 54% 30.00 in 6.2 mi East 11.5 mph 23.0 mph N/A   Mostly Cloudy
1:00 PM 80.6 °F 81.8 °F 62.6 °F 54% 29.99 in 6.2 mi East 11.5 mph 23.0 mph N/A   Mostly Cloudy
2:00 PM 80.6 °F 82.3 °F 64.4 °F 58% 29.97 in 6.2 mi East 18.4 mph - N/A   Mostly Cloudy
3:00 PM 79 °F - 62 °F 47% 29.79 in 12 mi East 11.5 mph - -   Partly Cloudy
3:00 PM 78.8 °F - 62.6 °F 57% 29.95 in 6.2 mi East 11.5 mph - N/A   Mostly Cloudy
4:00 PM 80.6 °F 81.8 °F 62.6 °F 54% 29.95 in 6.2 mi ENE 12.7 mph - N/A   Mostly Cloudy
5:00 PM 78.8 °F - 62.6 °F 57% 29.96 in 6.2 mi East 8.1 mph - N/A   Mostly Cloudy
6:00 PM 75 °F - 62 °F 54% 29.86 in 12 mi East 8.1 mph - -  
6:00 PM 75.2 °F - 60.8 °F 61% 29.99 in 6.2 mi East 8.1 mph - N/A   Mostly Cloudy
7:00 PM 75.2 °F - 62.6 °F 65% 30.00 in 6.2 mi East 8.1 mph - N/A   Mostly Cloudy
8:00 PM 71.6 °F - 62.6 °F 73% 30.02 in - ESE 4.6 mph - N/A   Clear
9:00 PM 71 °F - 63 °F 69% 29.88 in 12 mi SE 4.6 mph - -   Clear
9:00 PM 71.6 °F - 62.6 °F 73% 30.02 in - SE 4.6 mph - N/A   Clear
10:00 PM 71.6 °F - 62.6 °F 73% 30.02 in - ESE 5.8 mph - N/A   Clear
11:00 PM 71.6 °F - 62.6 °F 73% 30.01 in - NE 3.5 mph - N/A   Clear